Weather History for KOMA - May, 2013

Change the Weather History Date:

Thursday, May 23, 2013

  Actual Average Record
Temperature  
Mean Temperature 63 °F 65 °F  
Max Temperature 74 °F 76 °F 93 °F (1939)
Min Temperature 52 °F 53 °F 38 °F (1963)
Degree Days  
Heating Degree Days 2 3  
Month to date heating degree days 175 128  
Since 1 July heating degree days 6132 6130  
Cooling Degree Days 0 3  
Month to date cooling degree days 58 38  
Year to date cooling degree days 65 54  
Growing Degree Days 12 (Base 50)    
Moisture  
Dew Point 46 °F    
Average Humidity 59    
Maximum Humidity 89    
Minimum Humidity 29    
Precipitation  
Precipitation T in 0.16 in 1.29 in (1932)
Month to date precipitation 3.24 3.49  
Year to date precipitation 11.84 10.01  
Snow  
Snow 0.00 in 0.00 in - ()
Month to date snowfall 3.1 0.1  
Since 1 July snowfall 35.7 26.5  
Snow Depth 0.00 in    
Sea Level Pressure  
Sea Level Pressure 30.14 in    
Wind  
Wind Speed 10 mph (NNE)    
Max Wind Speed 21 mph    
Max Gust Speed 25 mph    
Visibility 9 miles    
Events      
T = Trace of Precipitation, MM = Missing Value Source: NWS Daily Summary

Daily Weather History Graph

Daily Weather History Graph

Search for Another Location

Airport or City:

Trip Planner

Search our weather history database for the weather conditions in past years. The results will help you decide how hot, cold, wet, or windy it might be!

Date:

Astronomy

May. 23, 2013 Rise Set
Actual Time 5:57 AM CDT 8:43 PM CDT
Civil Twilight 5:25 AM CDT 9:15 PM CDT
Nautical Twilight 4:45 AM CDT 9:56 PM CDT
Astronomical Twilight 3:58 AM CDT 10:43 PM CDT
Moon 7:16 PM CDT (5/23) 4:44 AM CDT (5/23)
Length of Visible Light 15h 50m
Length of Day
14h 45m
Waxing Gibbous, 97% of the Moon is Illuminated
May 23
Waxing Gibbous
May 24
Full
May 31
Last Quarter
Jun 8
New
Jun 16
First Quarter

Hourly Weather History & Observations

Time (CDT) Temp. Dew Point Humidity Pressure Visibility Wind Dir Wind Speed Gust Speed Precip Events Conditions
12:52 AM 54.0 °F 48.9 °F 83% 29.99 in 10.0 mi NNW 10.4 mph - N/A   Overcast
1:52 AM 54.0 °F 48.0 °F 80% 30.00 in 10.0 mi NNW 11.5 mph - N/A   Overcast
2:52 AM 54.0 °F 48.0 °F 80% 30.01 in 10.0 mi NNW 11.5 mph - N/A   Overcast
3:52 AM 53.1 °F 48.0 °F 83% 30.04 in 10.0 mi NNW 12.7 mph - N/A   Overcast
4:52 AM 53.1 °F 48.0 °F 83% 30.07 in 10.0 mi NNW 12.7 mph 18.4 mph 0.00 in   Light Drizzle
5:52 AM 53.1 °F 48.0 °F 83% 30.09 in 6.0 mi North 11.5 mph - 0.00 in   Overcast
6:21 AM 51.8 °F 48.2 °F 88% 30.11 in 5.0 mi NNW 10.4 mph - 0.00 in   Light Drizzle
6:52 AM 52.0 °F 48.9 °F 89% 30.13 in 7.0 mi North 10.4 mph - 0.00 in   Overcast
7:52 AM 52.0 °F 50.0 °F 93% 30.16 in 4.0 mi NNW 9.2 mph - 0.00 in   Light Drizzle
8:29 AM 53.6 °F 50.0 °F 88% 30.17 in 5.0 mi North 11.5 mph - 0.00 in   Light Drizzle
8:52 AM 54.0 °F 48.9 °F 83% 30.18 in 10.0 mi North 13.8 mph - 0.00 in   Overcast
9:52 AM 55.9 °F 48.0 °F 75% 30.20 in 10.0 mi NNE 15.0 mph - N/A   Overcast
10:52 AM 59.0 °F 48.9 °F 69% 30.19 in 10.0 mi NNE 11.5 mph - N/A   Mostly Cloudy
11:52 AM 63.0 °F 50.0 °F 63% 30.19 in 10.0 mi NE 10.4 mph 21.9 mph N/A   Mostly Cloudy
12:52 PM 66.9 °F 48.9 °F 52% 30.18 in 10.0 mi NE 12.7 mph - N/A   Scattered Clouds
1:52 PM 70.0 °F 45.0 °F 41% 30.16 in 10.0 mi ENE 16.1 mph 25.3 mph N/A   Scattered Clouds
2:52 PM 72.0 °F 45.0 °F 38% 30.18 in 10.0 mi NE 9.2 mph 19.6 mph N/A   Scattered Clouds
3:52 PM 73.0 °F 44.1 °F 35% 30.17 in 10.0 mi NNE 11.5 mph 19.6 mph N/A   Scattered Clouds
4:52 PM 73.0 °F 41.0 °F 31% 30.17 in 10.0 mi NE 6.9 mph - N/A   Scattered Clouds
5:52 PM 73.0 °F 39.9 °F 30% 30.17 in 10.0 mi ENE 10.4 mph - N/A   Partly Cloudy
6:52 PM 73.0 °F 39.9 °F 30% 30.17 in 10.0 mi ENE 9.2 mph - N/A   Partly Cloudy
7:52 PM 70.0 °F 42.1 °F 36% 30.17 in 10.0 mi ENE 9.2 mph - N/A   Partly Cloudy
8:52 PM 64.9 °F 41.0 °F 42% 30.18 in 10.0 mi ENE 6.9 mph - N/A   Partly Cloudy
9:52 PM 63.0 °F 42.1 °F 46% 30.19 in 10.0 mi East 9.2 mph - N/A   Partly Cloudy
10:52 PM 60.1 °F 42.1 °F 51% 30.22 in 10.0 mi East 4.6 mph - N/A   Clear
11:52 PM 57.9 °F 42.1 °F 56% 30.24 in 10.0 mi NE 3.5 mph - N/A   Partly Cloudy